Flag for Germany Weather past 2 weeks in Ansbach, Bavaria, Germany

Now
55 °F

Passing clouds.


Feels Like: 55 °F
Forecast: 53 / 71 °F
Wind: 2 mph from East

Location: Ansbach / Katterbach

Current Time: Sep 16, 2014 at 3:24:12 AM

Latest Report: Sep 16, 2014 at 2:58 AM


Visibility: N/A

Pressure: 30.05 "Hg

Humidity: 100%

Dew point: 55 °F

Location of AnsbachLocation

Historic Weather in Ansbach — Graph

°F

Ansbach temperature yesterday

Maximum temperature yesterday: 68 °F (at 2:58 PM)
Minimum temperature yesterday: 56 °F (at 6:58 AM)
Average temperature yesterday: 60 °F

Past Weeks' High & Low Weather Summary

 TemperatureHumidityPressure
High74 °F (Sep 8, 4:58 PM)100% (Sep 1, 1:58 AM)30.22 "Hg (Sep 1, 1:58 AM)
Low48 °F (Sep 11, 8:58 AM)54% (Sep 9, 12:58 PM)29.93 "Hg (Sep 12, 1:01 PM)
Average59 °F87%30.07 "Hg
* Reported Sep 1 1:58 AM — Sep 16 1:58 AM, Ansbach, Weather by CustomWeather, © 2014

Note: Actual official high and low records may vary slightly from our data, if they occured in-between our weather recording intervals... More about our weather records

Advertising

Ansbach weather history for previous 24 hours

 ConditionsComfort  
Time TempWeatherWind HumidityBarometerVisibility
1:58 AM
Sep 16
57 °FPassing clouds.2 mph94%30.04 "HgN/A
12:58 AM56 °FPassing clouds.3 mph91%30.05 "HgN/A
11:58 PM
Sep 15
59 °FPassing clouds.5 mph88%30.05 "HgN/A
10:58 PM60 °FPassing clouds.2 mph83%30.05 "HgN/A
9:58 PM61 °FMostly cloudy.1 mph83%30.05 "HgN/A
8:58 PM61 °FPassing clouds.3 mph83%30.06 "HgN/A
7:58 PM62 °FSunny.2 mph79%30.05 "HgN/A
6:58 PM64 °FSunny.5 mph73%30.05 "HgN/A
5:58 PM66 °FPassing clouds.9 mph67%30.03 "HgN/A
4:58 PM64 °FPartly sunny.6 mph73%30.05 "HgN/A
3:58 PM65 °FPartly sunny.7 mph70%30.05 "HgN/A
2:58 PM68 °FPartly sunny.8 mph64%30.06 "HgN/A
1:58 PM64 °FMore clouds than sun.5 mph80%30.07 "HgN/A
12:58 PM63 °FOvercast.7 mph82%30.08 "HgN/A
11:58 AM61 °FMostly cloudy.6 mph86%30.09 "HgN/A
10:58 AM61 °FMostly cloudy.6 mph87%30.09 "HgN/A
9:58 AM61 °FLow clouds.6 mph94%30.08 "HgN/A
9:46 AM61 °FMostly cloudy.7 mph94%30.06 "HgN/A
8:58 AM58 °FFog.5 mph100%30.07 "Hg6 mi
8:04 AM57 °FFog.6 mph100%30.05 "Hg5 mi
6:58 AM56 °FFog.2 mph100%30.06 "Hg4 mi
5:58 AM57 °FMostly cloudy.2 mph100%30.06 "HgN/A
4:58 AM57 °FOvercast.5 mph100%30.06 "HgN/A
3:58 AM57 °FMostly cloudy.5 mph99%30.05 "HgN/A
3:47 AM57 °FLow clouds.5 mph100%30.05 "HgN/A
Weather by CustomWeather, © 2014

See weather overviewHow to use our weather pages